Location: Newark
(44.3867°N, 6.6531°E)
Time: 10:30:21
(UTC+00:00)

Envisat - Pass Details

Date: 29 January 2020
Orbit: 764 x 766 km, 98.1° (Epoch: 19 February)

Event Time Altitude Azimuth Distance (km) Brightness Sun altitude
Rises 18:18:53 0° 198° (SSW) 3,219 6.6 -18.1°
Reaches altitude 10° 18:21:33 10° 211° (SSW) 2,298 6.0 -18.6°
Maximum altitude 18:25:42 25° 267° (W) 1,504 5.3 -19.3°
Drops below altitude 10° 18:29:53 10° 322° (NW) 2,311 5.9 -20.1°
Sets 18:32:35 0° 335° (NNW) 3,242 6.5 -20.6°
